Weather Roundup
Issued by NWS

Home | Current Version | Previous Version | Text Only | Print | Product List | Glossary On
Versions: 1 2 3 4 5 6 7 8 9 10 11 12 13 14 15 16 17 18 19 20 21 22 23 24 25 26 27 28 29 30 31 32 33 34 35 36 37 38 39 40 41 42 43 44 45 46 47 48 49 50
754
NZUS93 KARX 201310
HRRWXR

CURRENT HOURLY OBSERVATIONS ACROSS
MUCH OF THE UPPER MISSISSIPPI VALLEY
NATIONAL WEATHER SERVICE LA CROSSE WI
800 AM CDT FRI APR 20 2018


...SOUTHEAST MINNESOTA...


CITY           SKY/WX    TMP DP  RH WIND       PRES   REMARKS
ROCHESTER      FAIR      28  24  85 MISG      30.50R
ROCHESTER/MAYO FAIR      31  24  77 CALM      30.51S
WINONA         FAIR      30  27  86 CALM      30.51R
AUSTIN         FAIR      21  19  93 CALM      30.49S FOG
ALBERT LEA     FAIR      21  19  93 CALM      30.49S FOG
DODGE CENTER   FAIR      28  21  74 CALM      30.50R
PRESTON        FAIR      30  21  70 CALM      30.50S
OWATONNA       FAIR      28  25  86 CALM      30.50R
FARIBAULT      NOT AVBL
$$

...ELSEWHERE IN MINNESOTA...


CITY           SKY/WX    TMP DP  RH WIND       PRES   REMARKS
MINNEAPOLIS    FAIR      35  28  75 CALM      30.51R
INTNL FALLS    FAIR      33  27  78 CALM      30.41S
DULUTH         FAIR      38  28  67 CALM      30.43R
RED WING       FAIR      30  23  74 CALM      30.51R
REDWOOD FALLS  CLOUDY    26  23  88 E5        30.47S WCI  20
MANKATO        FAIR      25  21  85 SE6       30.50S WCI  18
WORTHINGTON    CLOUDY    28  21  75 SE6       30.44F WCI  22
FAIRMONT       CLOUDY    22  17  81 CALM      30.49S
$$

...SOUTHWEST WISCONSIN...


CITY           SKY/WX    TMP DP  RH WIND       PRES   REMARKS
LA CROSSE      FAIR      31  27  85 CALM      30.52S
PRAIRIE DU CHI FAIR      29  25  84 CALM      30.53S
BOSCOBEL       FAIR      30  27  88 SW5       30.54R WCI  25
LONE ROCK      FAIR      28  27  96 W5        30.53R WCI  23
PLATTEVILLE    FAIR      34  30  85 CALM      30.52R
FORT MC COY    FAIR      24  21  91 CALM      30.52S
CAMP DOUGLAS   SUNNY     28  25  86 CALM      30.50R
MAUSTON-NEW LI FAIR      28  21  75 CALM      30.50R
VIROQUA        FAIR      30  24  76 NW3       30.49S
WIS DELLS      FAIR      27  21  79 CALM      30.51R
$$

...ELSEWHERE IN WISCONSIN...


CITY           SKY/WX    TMP DP  RH WIND       PRES   REMARKS
MILWAUKEE      FAIR      40  24  53 W3        30.50R
MADISON        FAIR      31  26  82 CALM      30.50R
GREEN BAY      FAIR      27  23  85 CALM      30.49R
EAU CLAIRE     FAIR      31  25  78 CALM      30.49S
BLACK RVR FLS  FAIR      25  25 100 CALM      30.51S
MEDFORD        FAIR      28  20  70 CALM      30.47R
WAUSAU         FAIR      27  23  85 CALM      30.46R
WIS RAPIDS     FAIR      28  21  75 SW3       30.50R
MARSHFIELD     FAIR      30  17  58 NW6       30.47R WCI  24
RICE LAKE      FAIR      26  24  89 CALM      30.50S
$$

...NORTHEAST IOWA...


CITY           SKY/WX    TMP DP  RH WIND       PRES   REMARKS
WATERLOO       FAIR      30  27  88 CALM      30.51R
DUBUQUE        FAIR      37  25  61 NE5       30.51R WCI  33
DECORAH        FAIR      27  23  86 CALM      30.50R
MASON CITY     CLOUDY    21  19  92 CALM      30.51S FOG
CHARLES CITY   FAIR      27  27 100 NE5       30.51S WCI  21
OELWEIN        FAIR      32  32 100 NE6       30.51R WCI  26
$$

...ELSEWHERE IN IOWA...


CITY           SKY/WX    TMP DP  RH WIND       PRES   REMARKS
DES MOINES     CLOUDY    39  25  57 SE8       30.49R WCI  33
IOWA CITY      FAIR      36  28  73 CALM      30.52S
FORT DODGE     CLOUDY    35  30  82 E3        30.49R
MARSHALLTOWN   CLOUDY    32  28  85 CALM      30.50R
CEDAR RAPIDS   FAIR      37  29  72 NE3       30.50R
$$

...NORTHERN ILLINOIS...


CITY           SKY/WX    TMP DP  RH WIND       PRES   REMARKS
CHICAGO-OHARE  FAIR      43  24  47 N5        30.49S
CHICAGO-MIDWAY FAIR      44  26  49 NE6       30.50S
MOLINE         FAIR      34  31  88 CALM      30.52R
ROCKFORD       FAIR      32  28  85 CALM      30.52S
PEORIA         FAIR      40  30  67 CALM      30.53R
$$

NOTE: "FAIR" INDICATES FEW OR NO CLOUDS BELOW 12,000 FEET WITH NO
SIGNIFICANT WEATHER AND/OR OBSTRUCTIONS TO VISIBILITY. WIND
SPEEDS ARE IN MILES-PER-HOUR.




USA.gov is the U.S. government's official web portal to all federal, state and local government web resources and services.